Zurück zum Katalog

DELTA 1 R/B

AktivSSO
NORAD 3616·ROCKET BODY·🇺🇸 United States

Gestartet Dec 15, 1968 von Vandenberg Space Force Base

Loading…

Nächste Überflüge (nächste 24 Stunden)

TLE

AktuellSource: Space-Track

Epoche: Sep 14, 2026, 19:38 UTC

1 03616U 68114B   26257.81848030 -.00000041  00000-0  20569-4 0  9992
2 03616 101.6922 202.3960 0013106 211.0552 175.4122 12.51403570639815

Verfolge DELTA 1 R/B in Echtzeit mit AllMySat

Download on the App Store